EW6089 Weather Reports


time (UTC)temp
F
wind
direction
speed
knots
gust
knots
rain 1hr
in
rain 24hr
in
rain mn
in
humidity
%
barometer
mb
20260901182017 64 45 0.9 3.5 0.00 0.00 0.00 78 1010.5
20260901181059 64 0.0 2.6 0.00 0.00 0.00 79 1010.5
20260901180018 64 45 0.9 5.2 0.00 0.00 0.00 79 1010.4
20260901175020 64 135 0.9 1.7 0.00 0.00 0.00 79 1010.3
20260901174018 64 0.0 1.7 0.00 0.00 0.00 79 1010.2
20260901173018 64 0.0 1.7 0.00 0.00 0.00 79 1010.0
20260901172037 63 68 0.9 5.2 0.00 0.00 0.00 81 1010.1
20260901171039 62 68 0.9 3.5 0.00 0.00 0.00 83 1010.3
20260901170017 62 135 0.9 2.6 0.00 0.00 0.00 84 1010.3
20260901165043 61 0.0 1.7 0.00 0.00 0.00 85 1010.3
20260901164017 61 0.0 1.7 0.00 0.00 0.00 85 1010.4
20260901163017 60 0.0 0.9 0.00 0.00 0.00 86 1010.5
20260901162017 60 0.0 1.7 0.00 0.00 0.00 87 1010.5
20260901161017 60 0.0 0.9 0.00 0.00 0.00 87 1010.5
20260901160018 60 0.0 2.6 0.00 0.00 0.00 88 1010.4
20260901155017 59 0.0 2.6 0.00 0.00 0.00 89 1010.6
20260901154037 59 113 0.9 4.3 0.00 0.00 0.00 90 1010.6
20260901153040 58 0.0 1.7 0.00 0.00 0.00 93 1010.6
20260901152020 56 0.0 2.6 0.00 0.00 0.00 96 1010.5
20260901151026 55 0.0 0.0 0.00 0.00 0.00 96 1010.5
20260901150017 55 0.0 0.0 0.00 0.00 0.00 96 1010.4
20260901145038 54 0.0 0.0 0.00 0.00 0.00 96 1010.4
20260901144017 54 0.0 0.0 0.00 0.00 0.00 96 1010.3
20260901143017 54 0.0 0.0 0.00 0.00 0.00 96 1010.2
20260901142017 54 0.0 0.0 0.00 0.00 0.00 96 1010.2
20260901141017 54 0.0 0.0 0.00 0.00 0.00 96 1010.1
20260901140018 54 0.0 0.0 0.00 0.00 0.00 95 1010.0
20260901135017 54 0.0 0.0 0.00 0.00 0.00 95 1010.0
20260901134017 53 0.0 0.0 0.00 0.00 0.00 95 1009.9
20260901133017 53 0.0 0.0 0.00 0.00 0.00 95 1009.9
20260901132017 53 0.0 0.0 0.00 0.00 0.00 95 1009.9
20260901131017 54 0.0 0.0 0.00 0.00 0.00 95 1009.9
20260901130017 54 0.0 0.0 0.00 0.00 0.00 95 1009.9
20260901125017 54 0.0 0.0 0.00 0.00 0.00 95 1009.8
20260901124017 54 0.0 0.0 0.00 0.00 0.00 95 1009.8
20260901123017 54 0.0 0.0 0.00 0.00 0.00 95 1009.6
20260901122017 54 0.0 0.0 0.00 0.00 0.00 95 1009.7
20260901121017 54 0.0 0.0 0.00 0.00 0.00 95 1009.6
20260901120037 54 0.0 0.0 0.00 0.00 0.00 95 1009.5
20260901115017 54 0.0 0.0 0.00 0.00 0.00 94 1009.5
20260901114037 54 0.0 0.0 0.00 0.00 0.00 94 1009.4
20260901113018 54 0.0 0.0 0.00 0.00 0.00 94 1009.4
20260901112016 54 0.0 0.0 0.00 0.00 0.00 94 1009.5
20260901111016 54 0.0 0.0 0.00 0.00 0.00 94 1009.4
20260901110017 54 0.0 0.0 0.00 0.00 0.00 94 1009.5
20260901105037 54 0.0 0.0 0.00 0.00 0.00 93 1009.5
20260901104016 54 0.0 0.0 0.00 0.00 0.00 93 1009.4
20260901103017 54 0.0 0.0 0.00 0.00 0.00 93 1009.3
20260901102016 54 0.0 0.0 0.00 0.00 0.00 93 1009.3
20260901101017 54 0.0 0.0 0.00 0.00 0.00 93 1009.2
20260901100017 54 0.0 0.0 0.00 0.00 0.00 93 1009.2
20260901095042 55 0.0 0.0 0.00 0.00 0.00 92 1009.1
20260901094016 55 0.0 0.0 0.00 0.00 0.00 92 1009.2
20260901093017 55 0.0 0.0 0.00 0.00 0.00 92 1009.2
20260901092016 55 0.0 0.0 0.00 0.00 0.00 92 1009.2
20260901091017 55 0.0 0.0 0.00 0.00 0.00 91 1009.2
20260901090036 56 0.0 0.0 0.00 0.00 0.00 91 1009.1
20260901085016 56 0.0 0.0 0.00 0.00 0.00 91 1009.1
20260901084017 56 0.0 0.0 0.00 0.00 0.00 91 1009.1
20260901083018 56 0.0 0.0 0.00 0.00 0.00 91 1009.1
20260901082017 56 0.0 0.0 0.00 0.00 0.00 90 1009.1
20260901081040 56 0.0 0.0 0.00 0.00 0.00 90 1009.0
20260901080016 57 0.0 0.0 0.00 0.00 0.00 89 1008.9
20260901075016 57 0.0 0.0 0.00 0.00 0.00 89 1009.0
20260901074017 57 0.0 0.0 0.00 0.00 0.00 89 1008.9
20260901073016 57 0.0 0.0 0.00 0.00 0.00 88 1008.9
20260901072016 58 0.0 0.0 0.00 0.00 0.00 88 1008.9
20260901071016 58 0.0 0.0 0.00 0.00 0.00 88 1009.1
20260901070016 58 0.0 0.0 0.00 0.00 0.00 88 1008.8
20260901065016 58 0.0 0.0 0.00 0.00 0.00 87 1008.8
20260901064017 59 0.0 0.0 0.00 0.00 0.00 86 1008.9
20260901063016 59 0.0 0.0 0.00 0.00 0.00 86 1009.0
20260901062018 59 0.0 0.0 0.00 0.00 0.00 85 1009.0
20260901061016 60 0.0 0.0 0.00 0.00 0.00 85 1009.0
20260901060022 60 0.0 0.0 0.00 0.00 0.00 85 1009.0
20260901055016 60 0.0 0.0 0.00 0.00 0.00 84 1009.1
20260901054017 61 0.0 0.0 0.00 0.00 0.00 84 1009.1
20260901053016 61 0.0 0.0 0.00 0.00 0.00 83 1009.1
20260901052018 61 0.0 0.0 0.00 0.00 0.00 83 1009.1
20260901051016 62 0.0 0.0 0.00 0.00 0.00 82 1009.2
20260901050017 62 0.0 0.0 0.00 0.00 0.00 81 1009.1
20260901045018 62 0.0 0.0 0.00 0.00 0.00 81 1009.2
20260901044016 63 0.0 0.0 0.00 0.00 0.00 82 1009.0
20260901043018 63 0.0 0.0 0.00 0.00 0.00 81 1009.0
20260901042038 63 0.0 0.0 0.00 0.00 0.00 81 1009.1
20260901041024 64 0.0 0.0 0.00 0.00 0.00 80 1009.1
20260901040036 64 0.0 0.0 0.00 0.00 0.00 79 1009.0
20260901035038 65 0.0 0.0 0.00 0.00 0.00 78 1008.9
20260901034016 65 0.0 0.0 0.00 0.00 0.00 77 1008.8
20260901033016 66 0.0 0.0 0.00 0.00 0.00 77 1008.6
20260901032016 67 0.0 0.0 0.00 0.00 0.00 75 1008.7
20260901031016 67 0.0 0.0 0.00 0.00 0.00 74 1008.6
20260901030016 67 0.0 0.0 0.00 0.00 0.00 72 1008.5
20260901025042 68 0.0 0.0 0.00 0.00 0.00 72 1008.5
20260901024016 69 0.0 0.0 0.00 0.00 0.00 72 1008.5
20260901023016 69 0.0 0.9 0.00 0.00 0.00 70 1008.3
20260901022016 70 0.0 0.9 0.00 0.00 0.00 67 1008.4
20260901021016 70 0.0 0.0 0.00 0.00 0.00 66 1008.3
20260901020016 71 0.0 0.9 0.00 0.00 0.00 65 1008.4
20260901015017 72 0.0 0.0 0.00 0.00 0.00 64 1008.3
20260901014039 72 0.0 0.9 0.00 0.00 0.00 63 1008.3
20260901013017 73 0.0 0.9 0.00 0.00 0.00 62 1008.3
20260901012016 73 0.0 0.9 0.00 0.00 0.00 62 1008.3
20260901011016 73 0.0 0.9 0.00 0.00 0.00 61 1008.3
20260901010020 74 0.0 1.7 0.00 0.00 0.00 59 1008.3
20260901005018 74 0.0 0.0 0.00 0.00 0.00 58 1008.4
20260901004016 75 0.0 0.9 0.00 0.00 0.00 56 1008.4
20260901003018 75 0.0 1.7 0.00 0.00 0.00 55 1008.5
20260901002037 75 0.0 0.9 0.00 0.00 0.00 55 1008.6
20260901001017 75 158 0.9 2.6 0.00 0.00 0.00 56 1008.7
20260901000017 75 158 0.9 1.7 0.00 0.00 0.00 56 1008.8
20260831235017 75 158 0.9 2.6 0.00 0.00 0.00 57 1008.9
20260831234015 74 158 0.9 3.5 0.00 0.00 0.00 58 1008.9
20260831233016 74 158 0.9 3.5 0.00 0.00 0.00 57 1009.0
20260831232017 75 158 0.9 2.6 0.00 0.00 0.00 56 1009.2
20260831231017 75 158 0.9 2.6 0.00 0.00 0.00 56 1009.2
20260831230017 75 158 0.9 2.6 0.00 0.00 0.00 56 1009.3
20260831225017 75 158 0.9 3.5 0.00 0.00 0.00 56 1009.4
20260831224015 75 158 0.9 3.5 0.00 0.00 0.00 56 1009.6
20260831223016 75 158 0.9 4.3 0.00 0.00 0.00 57 1009.7
20260831222015 75 158 0.9 2.6 0.00 0.00 0.00 55 1009.8
20260831221035 75 0.0 1.7 0.00 0.00 0.00 56 1009.8
20260831220018 75 0.0 2.6 0.00 0.00 0.00 56 1010.0
20260831215034 75 0.0 1.7 0.00 0.00 0.00 57 1010.1
20260831214024 74 158 0.9 3.5 0.00 0.00 0.00 58 1010.1
20260831213018 74 158 0.9 2.6 0.00 0.00 0.00 59 1010.4
20260831212017 74 158 0.9 4.3 0.00 0.00 0.00 60 1010.3
20260831211017 73 158 0.9 4.3 0.00 0.00 0.00 60 1010.5
20260831210017 73 158 0.9 2.6 0.00 0.00 0.00 59 1010.7
20260831205020 72 135 0.9 3.5 0.00 0.00 0.00 61 1010.8
20260831204017 72 158 0.9 2.6 0.00 0.00 0.00 62 1010.9
20260831203038 71 158 0.9 2.6 0.00 0.00 0.00 63 1010.9
20260831202017 71 158 0.9 2.6 0.00 0.00 0.00 63 1011.2
20260831201022 70 158 0.9 3.5 0.00 0.00 0.00 63 1011.3
20260831200044 70 0.0 1.7 0.00 0.00 0.00 64 1011.4
20260831195017 69 158 0.9 2.6 0.00 0.00 0.00 64 1011.6
20260831191017 67 225 0.9 3.5 0.00 0.00 0.00 70 1012.3
20260831190023 66 0.0 2.6 0.00 0.00 0.00 72 1012.5
20260831185019 66 158 0.9 2.6 0.00 0.00 0.00 72 1012.7
20260831184019 65 158 0.9 3.5 0.00 0.00 0.00 73 1012.7
20260831183017 65 0.0 1.7 0.00 0.00 0.00 72 1012.8